Weather History for LFSX - November, 2012

Change the Weather History Date:

Monday, November 5, 2012

  Actual Average Record
Temperature  
Mean Temperature 44 °F -  
Max Temperature 48 °F 44 °F 60 °F (2003)
Min Temperature 41 °F 34 °F 28 °F (2007)
Degree Days  
Heating Degree Days 20    
Moisture  
Dew Point 42 °F    
Average Humidity 90    
Maximum Humidity 100    
Minimum Humidity 81    
Precipitation  
Precipitation 0.00 in - - ()
Sea Level Pressure  
Sea Level Pressure 29.73 in    
Wind  
Wind Speed 5 mph ()    
Max Wind Speed 17 mph    
Max Gust Speed -    
Visibility 6.1 miles    
Events Rain , Thunderstorm    
Averages and records for this station are not official NWS values.
T = Trace of Precipitation, MM = Missing Value Source: Averaged Metar Reports

Daily Weather History Graph

Daily Weather History Graph

Search for Another Location

Airport or City:

Trip Planner

Search our weather history database for the weather conditions in past years. The results will help you decide how hot, cold, wet, or windy it might be!

Date:

Astronomy

Nov. 05, 2012 Rise Set
Actual Time 7:25 AM CET 5:10 PM CET
Civil Twilight 6:52 AM CET 5:42 PM CET
Nautical Twilight 6:15 AM CET 6:19 PM CET
Astronomical Twilight 5:39 AM CET 6:55 PM CET
Moon 10:31 PM CET (11/5) 12:37 PM CET (11/5)
Length of Visible Light 10h 50m
Length of Day
9h 44m
Waning Gibbous, 65% of the Moon is Illuminated
Nov 5
Waning Gibbous
Nov 7
Last Quarter
Nov 13
New
Nov 20
First Quarter
Nov 28
Full

Hourly Weather History & Observations

Time (CET) Temp. Windchill Dew Point Humidity Pressure Visibility Wind Dir Wind Speed Gust Speed Precip Events Conditions
12:00 AM 46.4 °F - 44.6 °F 93% 29.62 in 6.2 mi Variable 2.3 mph - N/A   Mostly Cloudy
12:30 AM 46.4 °F 43.5 °F 41.0 °F 81% 29.65 in 6.2 mi SW 5.8 mph - N/A   Mostly Cloudy
1:00 AM 44.6 °F 43.1 °F 42.8 °F 93% 29.65 in 6.2 mi South 3.5 mph - N/A Rain Light Rain
1:30 AM 44.6 °F - 41.0 °F 87% 29.62 in 6.2 mi Variable 2.3 mph - N/A   Overcast
2:00 AM 42.8 °F - 41.0 °F 93% 29.65 in 6.2 mi Calm Calm - N/A   Unknown
2:30 AM 42.8 °F - 41.0 °F 93% 29.65 in 6.2 mi Calm Calm - N/A   Mostly Cloudy
3:00 AM 44.6 °F 41.4 °F 42.8 °F 93% 29.65 in 6.2 mi SW 5.8 mph - N/A   Mostly Cloudy
3:30 AM 44.6 °F 41.4 °F 42.8 °F 93% 29.65 in 6.2 mi SSW 5.8 mph - N/A   Scattered Clouds
4:00 AM 42.8 °F - 41.0 °F 93% 29.65 in 6.2 mi Calm Calm - N/A   Scattered Clouds
4:30 AM 42.8 °F - 41.0 °F 93% 29.65 in 6.2 mi Calm Calm - N/A   Partly Cloudy
5:00 AM 42.8 °F 40.1 °F 41.0 °F 93% 29.65 in 6.2 mi SSW 4.6 mph - N/A   Scattered Clouds
5:30 AM 41.0 °F 38.0 °F 41.0 °F 100% 29.65 in 6.2 mi SE 4.6 mph - N/A   Mostly Cloudy
6:00 AM 41.0 °F 37.1 °F 41.0 °F 100% 29.65 in 6.2 mi ESE 5.8 mph - N/A   Mostly Cloudy
6:30 AM 42.8 °F 41.1 °F 41.0 °F 93% 29.65 in 6.2 mi Variable 3.5 mph - N/A   Overcast
7:00 AM 42.8 °F 40.1 °F 41.0 °F 93% 29.65 in 6.2 mi ENE 4.6 mph - N/A   Overcast
7:30 AM 42.8 °F 41.1 °F 41.0 °F 93% 29.65 in 6.2 mi ENE 3.5 mph - N/A   Overcast
8:00 AM 42.8 °F 41.1 °F 42.8 °F 100% 29.65 in 6.2 mi East 3.5 mph - N/A   Overcast
8:30 AM 44.6 °F 43.1 °F 42.8 °F 93% 29.68 in 6.2 mi WSW 3.5 mph - N/A   Unknown
9:00 AM 46.4 °F 41.1 °F 42.8 °F 87% 29.68 in 6.2 mi SSW 11.5 mph - N/A   Mostly Cloudy
9:30 AM 48.2 °F - 44.6 °F 87% 29.68 in 6.2 mi SSW 12.7 mph - N/A   Overcast
10:00 AM 46.4 °F 41.1 °F 44.6 °F 93% 29.68 in 6.2 mi SW 11.5 mph - N/A Rain Light Rain
10:30 AM 46.4 °F 39.8 °F 44.6 °F 93% 29.68 in 6.2 mi SW 16.1 mph - N/A   Light Drizzle
11:00 AM 46.4 °F 40.1 °F 42.8 °F 87% 29.71 in 6.2 mi SW 15.0 mph - N/A Rain Light Rain
11:30 AM 48.2 °F - 42.8 °F 82% 29.71 in 6.2 mi SW 17.3 mph - N/A   Mostly Cloudy
12:00 PM 46.4 °F 39.8 °F 42.8 °F 87% 29.71 in 6.2 mi SW 16.1 mph - N/A Rain Light Rain
12:30 PM 46.4 °F 40.7 °F 42.8 °F 87% 29.71 in 6.2 mi SW 12.7 mph - N/A Rain Light Rain
1:00 PM 46.4 °F 40.1 °F 44.6 °F 93% 29.71 in 6.2 mi SW 15.0 mph - N/A   Mostly Cloudy
1:30 PM 48.2 °F - 44.6 °F 87% 29.71 in 5.6 mi SW 15.0 mph - N/A Rain Light Rain
2:00 PM 48.2 °F - 44.6 °F 87% 29.71 in 6.2 mi SW 16.1 mph - N/A Rain Light Rain
2:30 PM 46.4 °F 40.4 °F 42.8 °F 87% 29.71 in 6.2 mi SW 13.8 mph - N/A   Mostly Cloudy
3:00 PM 46.4 °F 40.7 °F 42.8 °F 87% 29.74 in 6.2 mi WSW 12.7 mph - N/A   Unknown
3:30 PM 46.4 °F 41.5 °F 42.8 °F 87% 29.74 in 6.2 mi WSW 10.4 mph - N/A   Mostly Cloudy
4:00 PM 46.4 °F 42.4 °F 42.8 °F 87% 29.77 in 6.2 mi WSW 8.1 mph - N/A Rain Light Rain
4:30 PM 46.4 °F 45.2 °F 42.8 °F 87% 29.77 in 6.2 mi Variable 3.5 mph - N/A   Scattered Clouds
5:00 PM 44.6 °F 42.2 °F 41.0 °F 87% 29.77 in 6.2 mi SE 4.6 mph - N/A   Mostly Cloudy
5:30 PM 44.6 °F 41.4 °F 41.0 °F 87% 29.80 in 3.1 mi West 5.8 mph - N/A Rain , Thunderstorm Light Thunderstorms and Rain
6:00 PM 42.8 °F 41.1 °F 39.2 °F 87% 29.80 in 6.2 mi WSW 3.5 mph - N/A   Mostly Cloudy
6:30 PM 42.8 °F 40.1 °F 41.0 °F 93% 29.83 in 6.2 mi SW 4.6 mph - N/A   Overcast
7:00 PM 42.8 °F - 41.0 °F 93% 29.83 in 6.2 mi Variable 2.3 mph - N/A   Mostly Cloudy
7:30 PM 42.8 °F - 39.2 °F 87% 29.86 in 6.2 mi Variable 2.3 mph - N/A   Overcast
8:00 PM 42.8 °F - 41.0 °F 93% 29.86 in 6.2 mi Variable 2.3 mph - N/A   Mostly Cloudy
8:30 PM 42.8 °F - 41.0 °F 93% 29.86 in 6.2 mi Variable 1.2 mph - N/A   Mostly Cloudy
9:00 PM 42.8 °F - 41.0 °F 93% 29.89 in 6.2 mi Variable 1.2 mph - N/A   Mostly Cloudy
9:30 PM 44.6 °F 39.7 °F 41.0 °F 87% 29.89 in 6.2 mi SW 9.2 mph - N/A   Mostly Cloudy
10:00 PM 44.6 °F 41.4 °F 41.0 °F 87% 29.89 in 6.2 mi West 5.8 mph - N/A   Overcast
10:30 PM 42.8 °F - 41.0 °F 93% 29.92 in 6.2 mi Variable 1.2 mph - N/A   Unknown
11:00 PM 42.8 °F 41.1 °F 39.2 °F 87% 29.92 in 6.2 mi Variable 3.5 mph - N/A   Unknown
11:30 PM 41.0 °F - 39.2 °F 93% 29.92 in 6.2 mi Variable 2.3 mph - N/A   Unknown